EDV4812 KPHX-KTUS

Flight info

Callsign EDV4812
Flight time 0h 27m
Altitude 13000
Route STRRM1 STRRM BASER DINGO DINGO6
Aircraft CRJ7/L-VGDW/C

Departure

Time 2026-04-22 03:51
Airport Phoenix Sky Harbor International Airport (KPHX)

Arrival

Time 2026-04-22 04:18
Airport Tucson International Airport (KTUS)
Time Latitude Longitude Altitude Speed Heading
2026-04-22 03:19 33.43388 -112.00923 1132 ft 0 kts
2026-04-22 03:26 33.43387 -112.00923 1129 ft 0 kts
2026-04-22 03:34 33.43386 -112.00923 1131 ft 0 kts
2026-04-22 03:36 33.43383 -112.00923 1130 ft 2 kts
2026-04-22 03:36 33.43366 -112.00923 1130 ft 2 kts
2026-04-22 03:36 33.43350 -112.00924 1129 ft 2 kts
2026-04-22 03:36 33.43333 -112.00926 1133 ft 2 kts
2026-04-22 03:37 33.43317 -112.00929 1129 ft 2 kts 11°
2026-04-22 03:37 33.43301 -112.00934 1129 ft 2 kts 26°
2026-04-22 03:37 33.43290 -112.00948 1131 ft 2 kts 75°
2026-04-22 03:37 33.43289 -112.00958 1133 ft 1 kts 91°
2026-04-22 03:38 33.43289 -112.00959 1133 ft 0 kts 91°
2026-04-22 03:44 33.43289 -112.00954 1133 ft 1 kts 91°
2026-04-22 03:44 33.43289 -112.00934 1133 ft 5 kts 91°
2026-04-22 03:44 33.43289 -112.00869 1129 ft 11 kts 90°
2026-04-22 03:45 33.43281 -112.00782 1130 ft 10 kts 129°
2026-04-22 03:45 33.43252 -112.00758 1131 ft 2 kts 156°
2026-04-22 03:45 33.43233 -112.00748 1132 ft 5 kts 149°
2026-04-22 03:45 33.43214 -112.00706 1130 ft 6 kts 91°
2026-04-22 03:46 33.43214 -112.00652 1130 ft 7 kts 90°
2026-04-22 03:46 33.43214 -112.00585 1134 ft 9 kts 90°
2026-04-22 03:46 33.43215 -112.00505 1134 ft 10 kts 90°
2026-04-22 03:46 33.43215 -112.00414 1132 ft 12 kts 90°
2026-04-22 03:47 33.43215 -112.00346 1130 ft 0 kts 90°
2026-04-22 03:47 33.43215 -112.00292 1132 ft 10 kts 91°
2026-04-22 03:47 33.43214 -112.00202 1132 ft 12 kts 90°
2026-04-22 03:47 33.43215 -112.00095 1130 ft 14 kts 89°
2026-04-22 03:48 33.43215 -111.99974 1134 ft 15 kts 91°
2026-04-22 03:48 33.43214 -111.99840 1134 ft 17 kts 90°
2026-04-22 03:48 33.43214 -111.99699 1133 ft 16 kts 90°
2026-04-22 03:48 33.43214 -111.99577 1130 ft 15 kts 90°
2026-04-22 03:49 33.43214 -111.99444 1133 ft 17 kts 90°
2026-04-22 03:49 33.43199 -111.99360 1134 ft 7 kts 135°
2026-04-22 03:49 33.43151 -111.99348 1135 ft 8 kts 184°
2026-04-22 03:49 33.43106 -111.99366 1136 ft 4 kts 241°
2026-04-22 03:50 33.43103 -111.99413 1134 ft 0 kts 269°
2026-04-22 03:50 33.43103 -111.99414 1134 ft 1 kts 269°
2026-04-22 03:50 33.43099 -111.99603 1134 ft 59 kts 268°
2026-04-22 03:50 33.43103 -112.00409 1132 ft 131 kts 270°
2026-04-22 03:51 33.43133 -112.01688 1394 ft 167 kts 270°
2026-04-22 03:51 33.43184 -112.03148 1931 ft 187 kts 271°
2026-04-22 03:51 33.43292 -112.04805 2582 ft 207 kts 272°
2026-04-22 03:51 33.43437 -112.06714 2969 ft 257 kts 272°
2026-04-22 03:52 33.43399 -112.08944 3691 ft 282 kts 262°
2026-04-22 03:52 33.42920 -112.11290 4704 ft 299 kts 249°
2026-04-22 03:52 33.41904 -112.13492 5744 ft 294 kts 234°
2026-04-22 03:52 33.40697 -112.15267 6041 ft 266 kts 228°
2026-04-22 03:53 33.39325 -112.16721 6080 ft 271 kts 213°
2026-04-22 03:53 33.37556 -112.17527 6154 ft 269 kts 190°
2026-04-22 03:53 33.35712 -112.17597 6189 ft 265 kts 177°
2026-04-22 03:53 33.33930 -112.17235 6433 ft 255 kts 170°
2026-04-22 03:54 33.32222 -112.16719 6759 ft 252 kts 166°
2026-04-22 03:54 33.30533 -112.16103 7118 ft 257 kts 165°
2026-04-22 03:54 33.28824 -112.15417 7483 ft 262 kts 160°
2026-04-22 03:54 33.27174 -112.14439 7873 ft 267 kts 154°
2026-04-22 03:55 33.25546 -112.13329 8259 ft 271 kts 153°
2026-04-22 03:55 33.23895 -112.12194 8656 ft 276 kts 153°
2026-04-22 03:55 33.22220 -112.11048 9060 ft 280 kts 153°
2026-04-22 03:55 33.20506 -112.09917 9478 ft 283 kts 154°
2026-04-22 03:56 33.18760 -112.08770 9897 ft 294 kts 154°
2026-04-22 03:56 33.16911 -112.07558 10285 ft 313 kts 154°
2026-04-22 03:56 33.14951 -112.06247 10677 ft 332 kts 150°
2026-04-22 03:56 33.13229 -112.04294 11087 ft 356 kts 128°
2026-04-22 03:57 33.11911 -112.01760 11617 ft 362 kts 130°
2026-04-22 03:57 33.10399 -111.99829 12663 ft 348 kts 141°
2026-04-22 03:57 33.09193 -111.98608 13416 ft 345 kts 145°
2026-04-22 03:58 33.04505 -111.94794 14245 ft 373 kts 156°
2026-04-22 03:58 33.02119 -111.93473 14606 ft 385 kts 159°
2026-04-22 03:58 32.99620 -111.92190 14973 ft 397 kts 160°
2026-04-22 03:58 32.97032 -111.90903 15346 ft 409 kts 160°
2026-04-22 03:59 32.94373 -111.89603 15720 ft 419 kts 160°
2026-04-22 03:59 32.91646 -111.88272 16093 ft 429 kts 160°
2026-04-22 03:59 32.89506 -111.86961 16394 ft 406 kts 152°
2026-04-22 03:59 32.87164 -111.85108 16736 ft 403 kts 148°
2026-04-22 04:00 32.84898 -111.83127 16911 ft 405 kts 147°
2026-04-22 04:00 32.82622 -111.81133 16996 ft 408 kts 147°
2026-04-22 04:00 32.80291 -111.79170 17017 ft 412 kts 149°
2026-04-22 04:00 32.77926 -111.77262 17029 ft 409 kts 149°
2026-04-22 04:01 32.75586 -111.75369 17026 ft 405 kts 149°
2026-04-22 04:01 32.73265 -111.73494 17029 ft 402 kts 149°
2026-04-22 04:01 32.70963 -111.71629 17025 ft 399 kts 149°
2026-04-22 04:01 32.68675 -111.69779 17024 ft 397 kts 149°
2026-04-22 04:02 32.66390 -111.67942 17021 ft 395 kts 149°
2026-04-22 04:02 32.64121 -111.66109 17029 ft 394 kts 149°
2026-04-22 04:02 32.61860 -111.64287 17035 ft 392 kts 149°
2026-04-22 04:02 32.59607 -111.62474 17040 ft 391 kts 149°
2026-04-22 04:03 32.57398 -111.60698 16594 ft 382 kts 149°
2026-04-22 04:03 32.55175 -111.58985 16034 ft 377 kts 150°
2026-04-22 04:03 32.52984 -111.57340 15546 ft 370 kts 151°
2026-04-22 04:03 32.50852 -111.55807 15344 ft 354 kts 155°
2026-04-22 04:04 32.48632 -111.54548 14935 ft 347 kts 159°
2026-04-22 04:04 32.46429 -111.53408 14466 ft 344 kts 160°
2026-04-22 04:04 32.44234 -111.52305 14010 ft 341 kts 160°
2026-04-22 04:04 32.42163 -111.50933 13372 ft 347 kts 145°
2026-04-22 04:05 32.40441 -111.48906 12767 ft 350 kts 131°
2026-04-22 04:05 32.39078 -111.46618 12666 ft 337 kts 125°
2026-04-22 04:05 32.37721 -111.44387 12172 ft 333 kts 129°
2026-04-22 04:05 32.36405 -111.42131 11677 ft 332 kts 127°
2026-04-22 04:06 32.35161 -111.39899 11635 ft 316 kts 126°
2026-04-22 04:06 32.33988 -111.37755 11558 ft 304 kts 126°
2026-04-22 04:06 32.32857 -111.35676 11361 ft 298 kts 126°
2026-04-22 04:06 32.31748 -111.33632 11163 ft 292 kts 126°
2026-04-22 04:07 32.30659 -111.31626 10889 ft 290 kts 126°
2026-04-22 04:07 32.29571 -111.29626 10573 ft 289 kts 126°
2026-04-22 04:07 32.28485 -111.27632 10265 ft 288 kts 126°
2026-04-22 04:07 32.27405 -111.25651 9966 ft 286 kts 126°
2026-04-22 04:08 32.26330 -111.23684 9622 ft 284 kts 126°
2026-04-22 04:08 32.25259 -111.21728 9289 ft 283 kts 126°
2026-04-22 04:08 32.24165 -111.19811 8964 ft 280 kts 130°
2026-04-22 04:08 32.22920 -111.18064 8647 ft 277 kts 134°
2026-04-22 04:09 32.21634 -111.16378 8337 ft 275 kts 135°
2026-04-22 04:09 32.20347 -111.14735 8130 ft 269 kts 135°
2026-04-22 04:09 32.19090 -111.13136 8029 ft 262 kts 135°
2026-04-22 04:09 32.17866 -111.11588 7977 ft 255 kts 135°
2026-04-22 04:10 32.16678 -111.10078 7965 ft 247 kts 135°
2026-04-22 04:10 32.15521 -111.08612 7944 ft 241 kts 135°
2026-04-22 04:10 32.14374 -111.07158 7943 ft 243 kts 136°
2026-04-22 04:10 32.13220 -111.05689 7952 ft 245 kts 136°
2026-04-22 04:11 32.12055 -111.04204 8026 ft 248 kts 136°
2026-04-22 04:11 32.10881 -111.02702 8029 ft 250 kts 136°
2026-04-22 04:11 32.09607 -111.01310 7992 ft 252 kts 142°
2026-04-22 04:11 32.08226 -111.00005 7874 ft 258 kts 144°
2026-04-22 04:12 32.06796 -110.98690 7759 ft 263 kts 144°
2026-04-22 04:12 32.05328 -110.97370 7638 ft 268 kts 145°
2026-04-22 04:12 32.03832 -110.96034 7534 ft 272 kts 145°
2026-04-22 04:12 32.02319 -110.94693 7477 ft 273 kts 145°
2026-04-22 04:13 32.00805 -110.93354 7452 ft 270 kts 145°
2026-04-22 04:13 31.99315 -110.92041 7424 ft 266 kts 145°
2026-04-22 04:13 31.97840 -110.90735 7410 ft 266 kts 145°
2026-04-22 04:13 31.96374 -110.89405 7393 ft 267 kts 139°
2026-04-22 04:14 31.95352 -110.87589 7380 ft 271 kts 109°
2026-04-22 04:14 31.95185 -110.85385 7329 ft 276 kts 83°
2026-04-22 04:14 31.95896 -110.83262 7007 ft 282 kts 54°
2026-04-22 04:14 31.97309 -110.81694 6712 ft 279 kts 34°
2026-04-22 04:15 31.99013 -110.80686 6325 ft 271 kts 10°
2026-04-22 04:15 32.00236 -110.80649 5948 ft 259 kts 342°
2026-04-22 04:15 32.01520 -110.81855 5585 ft 229 kts 307°
2026-04-22 04:15 32.02503 -110.83264 5148 ft 214 kts 309°
2026-04-22 04:16 32.03484 -110.84521 4819 ft 203 kts 311°
2026-04-22 04:16 32.05371 -110.86647 4420 ft 179 kts 315°
2026-04-22 04:16 32.06246 -110.87622 4242 ft 160 kts 311°
2026-04-22 04:17 32.06939 -110.88512 3879 ft 140 kts 310°
2026-04-22 04:17 32.07628 -110.89298 3619 ft 142 kts 315°
2026-04-22 04:17 32.08353 -110.90117 3363 ft 148 kts 310°
2026-04-22 04:17 32.09081 -110.90981 3128 ft 147 kts 311°
2026-04-22 04:18 32.09782 -110.91803 2822 ft 141 kts 312°
2026-04-22 04:18 32.10440 -110.92567 2646 ft 117 kts 311°
2026-04-22 04:18 32.10911 -110.93125 2625 ft 76 kts 315°
2026-04-22 04:18 32.11174 -110.93429 2619 ft 42 kts 315°
2026-04-22 04:19 32.11346 -110.93630 2614 ft 27 kts 315°
2026-04-22 04:19 32.11451 -110.93682 2609 ft 16 kts 37°
2026-04-22 04:19 32.11485 -110.93646 2609 ft 0 kts 43°
2026-04-22 04:20 32.11486 -110.93645 2609 ft 1 kts 43°
2026-04-22 04:20 32.11503 -110.93626 2609 ft 8 kts 43°
2026-04-22 04:20 32.11566 -110.93641 2606 ft 13 kts 317°
2026-04-22 04:20 32.11635 -110.93722 2604 ft 15 kts 316°
2026-04-22 04:21 32.11709 -110.93810 2599 ft 16 kts 322°
2026-04-22 04:21 32.11767 -110.93801 2590 ft 11 kts 41°
2026-04-22 04:21 32.11792 -110.93720 2599 ft 10 kts 85°
2026-04-22 04:21 32.11811 -110.93675 2600 ft 2 kts 17°
2026-04-22 04:22 32.11839 -110.93678 2600 ft 3 kts 345°
2026-04-22 04:22 32.11849 -110.93682 2600 ft 1 kts 345°
2026-04-22 04:22 32.11851 -110.93682 2600 ft 0 kts 345°
2026-04-22 04:23 32.11850 -110.93682 2600 ft 0 kts 345°